• In Netherlands
  • List of Countries
  • For 7 days
  • Water Temperature
  • Satellite Maps
  • Weather Map
  • Weather Widgets
  • user-avatar
    Login

    Hourly Weather Mendoza

    Today, 18 June, Monday

    Time Temperature Precipitation Wind Pressure Humidity
    00:00 +10°C° 0 mm 2 mps 701 mmHg 35%
    01:00 +10°C° 0 mm 2 mps 700 mmHg 35%
    02:00 +10°C° 0 mm 2 mps 700 mmHg 35%
    03:00 +9°C° 0 mm 2 mps 700 mmHg 36%
    04:00 +9°C° 0 mm 2 mps 699 mmHg 36%
    05:00 +9°C° 0 mm 2 mps 699 mmHg 37%
    06:00 +9°C° 0 mm 2 mps 699 mmHg 37%
    07:00 +8°C° 0 mm 2 mps 699 mmHg 37%
    08:00 +12°C° 0 mm 2 mps 699 mmHg 33%
    09:00 +14°C° 0 mm 2 mps 699 mmHg 28%
    10:00 +17°C° 0 mm 2 mps 700 mmHg 24%
    11:00 +18°C° 0 mm 2 mps 699 mmHg 22%
    12:00 +19°C° 0 mm 3 mps 699 mmHg 21%
    13:00 +20°C° 0 mm 3 mps 698 mmHg 19%
    14:00 +20°C° 0 mm 3 mps 698 mmHg 21%
    15:00 +19°C° 0 mm 2 mps 698 mmHg 22%
    16:00 +18°C° 0 mm 2 mps 697 mmHg 24%
    17:00 +17°C° 0 mm 2 mps 697 mmHg 25%
    18:00 +16°C° 0 mm 2 mps 698 mmHg 26%
    19:00 +14°C° 0 mm 2 mps 698 mmHg 27%
    20:00 +14°C° 0 mm 2 mps 698 mmHg 28%
    21:00 +14°C° 0 mm 2 mps 698 mmHg 29%
    22:00 +13°C° 0 mm 2 mps 698 mmHg 29%
    23:00 +13°C° 0 mm 2 mps 697 mmHg 31%

    Tomorrow, 19 June, Tuesday

    Time Temperature Precipitation Wind Pressure Humidity
    00:00 +12°C° 0 mm 2 mps 697 mmHg 33%
    01:00 +12°C° 0 mm 2 mps 697 mmHg 35%
    02:00 +12°C° 0 mm 2 mps 697 mmHg 36%
    03:00 +10°C° 0 mm 2 mps 696 mmHg 38%
    04:00 +10°C° 0 mm 2 mps 696 mmHg 39%
    05:00 +10°C° 0 mm 2 mps 696 mmHg 39%
    06:00 +10°C° 0 mm 2 mps 697 mmHg 40%
    07:00 +10°C° 0 mm 2 mps 697 mmHg 40%
    08:00 +13°C° 0 mm 2 mps 698 mmHg 34%
    09:00 +16°C° 0 mm 2 mps 698 mmHg 28%
    10:00 +19°C° 0 mm 2 mps 699 mmHg 23%
    11:00 +20°C° 0 mm 2 mps 699 mmHg 21%
    12:00 +21°C° 0 mm 3 mps 698 mmHg 19%
    13:00 +22°C° 0 mm 3 mps 698 mmHg 17%
    14:00 +21°C° 0 mm 3 mps 698 mmHg 18%
    15:00 +20°C° 0 mm 2 mps 698 mmHg 20%
    16:00 +19°C° 0 mm 2 mps 698 mmHg 21%
    17:00 +18°C° 0 mm 2 mps 699 mmHg 23%
    18:00 +16°C° 0 mm 2 mps 699 mmHg 25%
    19:00 +14°C° 0 mm 3 mps 699 mmHg 27%
    20:00 +13°C° 0 mm 3 mps 700 mmHg 28%
    21:00 +12°C° 0 mm 3 mps 700 mmHg 29%
    22:00 +12°C° 0 mm 3 mps 700 mmHg 30%
    23:00 +11°C° 0 mm 3 mps 700 mmHg 32%

    Day after tomorrow, 20 June, Wednesday

    Time Temperature Precipitation Wind Pressure Humidity
    00:00 +11°C° 0 mm 3 mps 699 mmHg 35%
    01:00 +10°C° 0 mm 3 mps 699 mmHg 37%
    02:00 +10°C° 0 mm 3 mps 699 mmHg 38%
    03:00 +9°C° 0 mm 3 mps 699 mmHg 40%
    04:00 +9°C° 0 mm 3 mps 698 mmHg 41%
    05:00 +9°C° 0 mm 3 mps 698 mmHg 42%
    06:00 +9°C° 0 mm 3 mps 698 mmHg 43%
    07:00 +8°C° 0 mm 3 mps 698 mmHg 43%
    08:00 +12°C° 0 mm 2 mps 699 mmHg 40%
    09:00 +14°C° 0 mm 2 mps 699 mmHg 36%
    10:00 +16°C° 0 mm 2 mps 699 mmHg 32%
    11:00 +17°C° 0 mm 2 mps 698 mmHg 30%
    12:00 +18°C° 0 mm 2 mps 698 mmHg 28%
    13:00 +19°C° 0 mm 2 mps 697 mmHg 26%
    14:00 +18°C° 0 mm 2 mps 697 mmHg 26%
    15:00 +18°C° 0 mm 2 mps 697 mmHg 27%
    16:00 +17°C° 0 mm 2 mps 697 mmHg 27%
    17:00 +16°C° 0 mm 2 mps 698 mmHg 28%
    18:00 +14°C° 0 mm 3 mps 698 mmHg 28%
    19:00 +13°C° 0 mm 3 mps 698 mmHg 29%
    20:00 +12°C° 0 mm 3 mps 699 mmHg 28%
    21:00 +12°C° 0 mm 3 mps 699 mmHg 27%
    22:00 +12°C° 0 mm 3 mps 700 mmHg 26%
    23:00 +12°C° 0 mm 3 mps 700 mmHg 26%

    21 June, Thursday

    Time Temperature Precipitation Wind Pressure Humidity
    00:00 +12°C° 0 mm 3 mps 700 mmHg 26%
    01:00 +11°C° 0 mm 3 mps 700 mmHg 27%
    02:00 +11°C° 0 mm 3 mps 700 mmHg 28%
    03:00 +10°C° 0 mm 4 mps 700 mmHg 30%
    04:00 +10°C° 0 mm 4 mps 701 mmHg 32%
    05:00 +8°C° 0 mm 4 mps 701 mmHg 36%
    06:00 +8°C° 0 mm 4 mps 701 mmHg 41%
    07:00 +7°C° 0 mm 4 mps 702 mmHg 45%
    08:00 +10°C° 0 mm 4 mps 702 mmHg 42%
    09:00 +11°C° 0 mm 4 mps 702 mmHg 38%
    10:00 +13°C° 0 mm 4 mps 703 mmHg 34%
    11:00 +13°C° 0 mm 4 mps 702 mmHg 32%
    12:00 +14°C° 0 mm 4 mps 701 mmHg 30%
    13:00 +14°C° 0 mm 3 mps 701 mmHg 29%
    14:00 +14°C° 0 mm 3 mps 701 mmHg 29%
    15:00 +14°C° 0 mm 3 mps 700 mmHg 30%
    16:00 +14°C° 0 mm 2 mps 700 mmHg 30%
    17:00 +13°C° 0 mm 2 mps 700 mmHg 32%
    18:00 +12°C° 0 mm 2 mps 701 mmHg 34%
    19:00 +10°C° 0 mm 2 mps 701 mmHg 35%
    20:00 +10°C° 0 mm 2 mps 701 mmHg 36%
    21:00 +9°C° 0 mm 3 mps 700 mmHg 37%
    22:00 +9°C° 0 mm 3 mps 700 mmHg 37%
    23:00 +8°C° 0 mm 3 mps 700 mmHg 38%

    22 June, Friday

    Time Temperature Precipitation Wind Pressure Humidity
    00:00 +8°C° 0 mm 3 mps 700 mmHg 38%
    01:00 +8°C° 0 mm 3 mps 699 mmHg 39%
    02:00 +7°C° 0 mm 3 mps 699 mmHg 40%
    03:00 +7°C° 0 mm 3 mps 699 mmHg 40%
    04:00 +7°C° 0 mm 3 mps 699 mmHg 41%
    05:00 +5°C° 0 mm 3 mps 699 mmHg 42%
    06:00 +5°C° 0 mm 3 mps 699 mmHg 43%
    07:00 +5°C° 0 mm 3 mps 699 mmHg 44%
    08:00 +8°C° 0 mm 3 mps 699 mmHg 40%
    09:00 +10°C° 0 mm 3 mps 698 mmHg 37%
    10:00 +13°C° 0 mm 2 mps 698 mmHg 34%
    11:00 +13°C° 0 mm 2 mps 698 mmHg 32%
    12:00 +14°C° 0 mm 2 mps 697 mmHg 31%
    13:00 +15°C° 0 mm 2 mps 696 mmHg 29%
    14:00 +15°C° 0 mm 2 mps 696 mmHg 30%
    15:00 +14°C° 0 mm 2 mps 696 mmHg 30%
    16:00 +14°C° 0 mm 2 mps 696 mmHg 30%
    17:00 +13°C° 0 mm 2 mps 696 mmHg 32%
    18:00 +12°C° 0 mm 2 mps 696 mmHg 35%
    19:00 +9°C° 0 mm 3 mps 697 mmHg 37%
    20:00 +9°C° 0 mm 3 mps 697 mmHg 37%
    21:00 +9°C° 0 mm 3 mps 697 mmHg 38%
    22:00 +9°C° 0 mm 3 mps 697 mmHg 38%
    23:00 +9°C° 0 mm 3 mps 697 mmHg 38%

    23 June, Saturday

    Time Temperature Precipitation Wind Pressure Humidity
    00:00 +8°C° 0 mm 3 mps 697 mmHg 38%
    01:00 +8°C° 0 mm 3 mps 697 mmHg 39%
    02:00 +8°C° 0 mm 3 mps 696 mmHg 40%
    03:00 +8°C° 0 mm 3 mps 696 mmHg 41%
    04:00 +7°C° 0 mm 3 mps 696 mmHg 42%
    05:00 +7°C° 0 mm 3 mps 696 mmHg 43%
    06:00 +7°C° 0 mm 3 mps 696 mmHg 45%
    07:00 +7°C° 0 mm 3 mps 697 mmHg 46%
    08:00 +9°C° 0 mm 3 mps 697 mmHg 42%
    09:00 +11°C° 0 mm 3 mps 697 mmHg 37%
    10:00 +13°C° 0 mm 3 mps 697 mmHg 33%
    11:00 +15°C° 0 mm 2 mps 696 mmHg 32%
    12:00 +16°C° 0 mm 2 mps 696 mmHg 32%
    13:00 +17°C° 0 mm 2 mps 696 mmHg 31%
    14:00 +16°C° 0 mm 2 mps 696 mmHg 32%
    15:00 +16°C° 0 mm 2 mps 696 mmHg 34%
    16:00 +16°C° 0 mm 2 mps 696 mmHg 35%
    17:00 +15°C° 0 mm 2 mps 697 mmHg 39%
    18:00 +13°C° 0 mm 2 mps 697 mmHg 42%
    19:00 +12°C° 0 mm 1 mps 698 mmHg 46%
    20:00 +12°C° 0 mm 2 mps 698 mmHg 47%
    21:00 +10°C° 0 mm 2 mps 698 mmHg 49%
    22:00 +10°C° 0 mm 2 mps 698 mmHg 50%
    23:00 +9°C° 0 mm 2 mps 698 mmHg 51%
    Show more